STARLINK-34615

Last updated on Sun Dec 07 2025 00:02:05 GMT+0000 (Coordinated Universal Time)

1 66321U 25253C 25340.66670139 -.00105906 00000+0 -18214-2 0 9997 2 66321 43.0003 19.4547 0001138 273.8807 285.4843 15.50618765 6002
UTC large
Height (km)
Speed (km/s)
/
Latitude / Longitude
Inclination (degrees)
Orbital Period (minutes)
Azimuth
Elevation
Range (km)
Doppler Factor

Next 0 passes for location: London (51.5072 / 0.1276)

Sorry there are no passes over London.